TimeADT,TemperatureF,Dew PointF,Humidity,Sea Level PressureIn,VisibilityMPH,Wind Direction,Wind SpeedMPH,Gust SpeedMPH,PrecipitationIn,Events,Conditions,WindDirDegrees,DateUTC
12:00 AM,59.0,55.4,88,30.10,15.0,SE,4.6,-,N/A,,Mostly Cloudy,130,2013-08-21 03:00:00
1:00 AM,59.0,55.4,88,30.09,15.0,ESE,6.9,-,N/A,,Mostly Cloudy,120,2013-08-21 04:00:00
2:00 AM,59.0,55.4,88,30.09,15.0,ESE,4.6,-,N/A,,Mostly Cloudy,120,2013-08-21 05:00:00
3:00 AM,59.0,57.2,94,30.09,15.0,SSE,3.5,-,N/A,,Mostly Cloudy,150,2013-08-21 06:00:00
4:00 AM,62.6,60.8,94,30.09,15.0,South,6.9,-,N/A,,Mostly Cloudy,180,2013-08-21 07:00:00
5:00 AM,64.4,62.6,94,30.08,15.0,South,9.2,-,N/A,,Mostly Cloudy,170,2013-08-21 08:00:00
6:00 AM,64.4,62.6,94,30.08,15.0,South,10.4,-,N/A,,Mostly Cloudy,180,2013-08-21 09:00:00
6:25 AM,64.4,62.6,94,30.08,15.0,South,8.1,-,N/A,,Mostly Cloudy,170,2013-08-21 09:25:00
7:00 AM,64.4,62.6,94,30.08,15.0,South,10.4,-,N/A,,Mostly Cloudy,180,2013-08-21 10:00:00
8:00 AM,66.2,64.4,94,30.09,15.0,South,10.4,-,N/A,,Mostly Cloudy,180,2013-08-21 11:00:00
9:00 AM,68,63,80,30.09,15,South,10.4,,,,Partly Cloudy,190,2013-08-21 12:00:00
9:00 AM,68.0,62.6,83,30.09,15.0,South,11.5,-,N/A,,Scattered Clouds,190,2013-08-21 12:00:00
10:00 AM,69.8,62.6,78,30.07,15.0,South,15.0,-,N/A,,Partly Cloudy,190,2013-08-21 13:00:00
11:00 AM,71.6,62.6,73,30.07,15.0,SSW,15.0,-,N/A,,Scattered Clouds,200,2013-08-21 14:00:00
12:00 PM,75.2,64.4,69,30.06,15.0,SSW,11.5,18.4,N/A,,Partly Cloudy,210,2013-08-21 15:00:00
1:00 PM,77.0,66.2,69,30.05,15.0,SSW,11.5,17.3,N/A,,Partly Cloudy,200,2013-08-21 16:00:00
2:00 PM,80.6,66.2,61,30.03,15.0,SSW,16.1,-,N/A,,Scattered Clouds,210,2013-08-21 17:00:00
3:00 PM,81,64,47,30.01,15,SSW,16.1,,,,Clear,210,2013-08-21 18:00:00
3:00 PM,80.6,64.4,58,30.01,15.0,SSW,18.4,-,N/A,,Scattered Clouds,210,2013-08-21 18:00:00
4:00 PM,82.4,62.6,51,30.00,15.0,SW,16.1,24.2,N/A,,Scattered Clouds,220,2013-08-21 19:00:00
5:00 PM,80.6,62.6,54,29.99,15.0,SW,15.0,20.7,N/A,,Scattered Clouds,220,2013-08-21 20:00:00
6:00 PM,80.6,62.6,54,29.98,15.0,SW,13.8,24.2,N/A,,Scattered Clouds,230,2013-08-21 21:00:00
7:00 PM,78.8,62.6,57,29.97,15.0,SW,10.4,17.3,N/A,,Scattered Clouds,220,2013-08-21 22:00:00
8:00 PM,75.2,62.6,65,29.96,15.0,SW,8.1,-,N/A,,Scattered Clouds,220,2013-08-21 23:00:00
9:00 PM,73,62,61,29.96,15,SW,8.1,,,,Clear,220,2013-08-22 00:00:00
9:00 PM,73.4,62.6,69,29.96,15.0,SW,9.2,-,N/A,,Scattered Clouds,220,2013-08-22 00:00:00
10:00 PM,69.8,62.6,78,29.97,15.0,SW,8.1,-,N/A,,Scattered Clouds,220,2013-08-22 01:00:00
11:00 PM,69.8,62.6,78,29.96,15.0,SSW,10.4,-,N/A,,Partly Cloudy,210,2013-08-22 02:00:00